Regional Weather Roundup
Issued by NWS

Home | Current Version | Previous Version | Text Only | Print | Product List | Glossary On
Versions: 1 2 3 4 5 6 7 8 9 10 11 12 13 14 15 16 17 18 19 20 21 22 23 24 25 26 27 28 29 30 31 32 33 34 35 36 37 38 39 40 41 42 43 44 45 46 47 48 49 50
111
ASUS43 KBIS 240310
RWRND

NORTH DAKOTA REGIONAL WEATHER ROUNDUP
NATIONAL WEATHER SERVICE BISMARCK ND
900 PM CST THU FEB 23 2017

NOTE: "FAIR" INDICATES FEW OR NO CLOUDS BELOW 12,000 FEET WITH NO
SIGNIFICANT WEATHER AND/OR OBSTRUCTIONS TO VISIBILITY.


NDZ001>003-009>011-017-240400-
NORTHWEST NORTH DAKOTA

CITY           SKY/WX    TMP DP  RH WIND       PRES   REMARKS
WILLISTON      FAIR      14   9  80 N3        30.14R
MINOT          FAIR      21  15  78 CALM      30.13R
MINOT AFB      PTCLDY    14  11  87 NW5       30.13R WCI   6
$$

NDZ018>021-031>035-040>046-240400-
SOUTHWEST NORTH DAKOTA

CITY           SKY/WX    TMP DP  RH WIND       PRES   REMARKS
BISMARCK       MOCLDY    22  15  75 N8        30.11S WCI  12
DICKINSON      CLOUDY    19  12  74 N12       30.05F WCI   7
GARRISON         N/A     13   8  81 N5        30.12S WCI   5
HETTINGER ARPT CLOUDY    23  22  96 NE13      30.05R FOG     WCI  11
$$

NDZ004>008-012>016-024-026-027-054-240400-
NORTHEAST NORTH DAKOTA

CITY           SKY/WX    TMP DP  RH WIND       PRES   REMARKS
GRAND FORKS    PTCLDY    21  13  71 N9        30.12F WCI  11
GRND FRKS AFB  CLEAR     19  15  84 N12       30.12F WCI   7
DEVILS LAKE    FAIR      17  14  88 N7        30.12S WCI   8
$$

NDZ022-023-025-028>030-036>039-047>053-240400-
SOUTHEAST NORTH DAKOTA

CITY           SKY/WX    TMP DP  RH WIND       PRES   REMARKS
FARGO          CLOUDY    24  15  68 N15       30.06F WCI  11
JAMESTOWN      FAIR      23  17  78 NE12      30.06S WCI  12
$$





USA.gov is the U.S. government's official web portal to all federal, state and local government web resources and services.